Terminal Aerodrome Forecast
Issued by NWS

Home | Current Version | Previous Version | Text Only | Print | Product List | Glossary Off
Versions: 1 2 3 4 5 6 7 8 9 10 11 12 13 14 15 16 17 18 19 20 21 22 23

000
FTUS43 KMPX 191900 AAB
TAFAXN
TAF AMD
KAXN 191931Z 1920/2018 20010KT 3SM -SHRA BR BKN005 OVC010
     FM192100 22009KT P6SM BKN015
     FM192230 24008KT P6SM SCT250
     FM200800 30009KT P6SM SKC=

USA.gov is the U.S. government's official web portal to all federal, state and local government web resources and services.